period_start,C,m1,H,J0,J1,J2,J3,J4,J5,JA,JB,JC,JD,JJ,JK,JN,#
2014-03-05 00:00:42,0.18,11.87,0.00,20.57,26.10,29.08,6.19,32.75,1028.46,2040.99,1027.67,1455.02,1571.98,349.42,329.77,27.62,0000 0000 0000 0000 000000
2014-03-05 00:01:43,0.33,11.88,0.00,20.57,26.10,29.07,6.08,33.00,1028.45,2040.99,1027.28,1454.99,1571.76,349.64,330.11,27.63,0000 0000 0000 0000 000000
2014-03-05 00:02:43,0.46,11.88,0.00,20.57,26.10,29.13,6.26,32.88,1028.45,2040.99,1027.12,1454.97,1571.40,351.00,331.39,27.64,0000 0000 0000 0000 000000
2014-03-05 00:03:43,0.34,11.88,0.00,20.57,26.10,29.11,6.18,32.79,1028.45,2040.97,1027.04,1454.86,1571.16,349.67,330.13,27.64,0000 0000 0000 0000 000000
2014-03-05 00:04:44,0.23,11.88,0.00,20.58,26.10,29.15,6.23,32.92,1028.39,2040.96,1027.00,1454.56,1571.05,350.38,330.78,27.65,0000 0000 0000 0000 000000
2014-03-05 00:05:44,0.27,11.88,0.00,20.58,26.10,29.16,6.30,32.79,1028.36,2040.97,1026.96,1454.26,1571.02,350.86,331.22,27.65,0000 0000 0000 0000 000000
2014-03-05 00:06:44,0.29,11.88,0.00,20.59,26.10,29.11,6.16,32.75,1028.40,2040.97,1026.67,1454.12,1571.00,349.87,330.28,27.66,0000 0000 0000 0000 000000
2014-03-05 00:07:45,0.39,11.89,0.00,20.59,26.10,29.08,6.03,32.71,1028.41,2040.97,1026.27,1454.05,1570.92,349.19,329.65,27.67,0000 0000 0000 0000 000000
2014-03-05 00:08:45,0.48,11.89,0.00,20.57,26.10,29.06,6.15,32.67,1028.41,2040.99,1026.10,1454.02,1570.56,349.57,330.03,27.67,0000 0000 0000 0000 000000
2014-03-05 00:09:45,0.36,11.89,0.00,20.57,26.10,29.14,6.21,32.92,1028.45,2040.99,1026.02,1453.99,1570.26,350.60,331.01,27.68,0000 0000 0000 0000 000000
2014-03-05 00:10:46,0.22,11.89,0.00,20.57,26.10,29.13,6.27,32.58,1028.50,2040.99,1026.00,1453.94,1570.10,350.48,330.92,27.68,0000 0000 0000 0000 000000
2014-03-05 00:11:46,0.15,11.89,0.00,20.57,26.10,29.08,6.17,32.79,1028.54,2040.99,1025.81,1453.71,1570.03,349.85,330.27,27.69,0000 0000 0000 0000 000000
2014-03-05 00:12:46,0.51,11.90,0.00,20.57,26.10,29.11,6.24,32.63,1028.56,2040.99,1025.39,1453.33,1570.01,350.01,330.59,27.69,0000 0000 0000 0000 000000
2014-03-05 00:13:46,0.60,11.90,0.00,20.57,26.10,29.09,6.21,32.88,1028.52,2040.99,1025.15,1453.16,1569.99,349.98,330.44,27.70,0000 0000 0000 0000 000000
2014-03-05 00:14:47,0.35,11.90,0.00,20.57,26.10,29.14,6.19,32.83,1028.40,2040.99,1025.05,1453.06,1569.90,350.23,330.78,27.71,0000 0000 0000 0000 000000
2014-03-05 00:15:47,0.22,11.90,0.00,20.57,26.10,29.11,6.28,32.96,1028.40,2040.98,1025.02,1453.02,1569.53,350.38,331.23,27.71,0000 0000 0000 0000 000000
2014-03-05 00:16:47,0.21,11.91,0.00,20.57,26.10,29.09,6.24,32.67,1028.36,2040.99,1025.00,1452.99,1569.21,350.79,331.27,27.72,0000 0000 0000 0000 000000
2014-03-05 00:17:48,0.14,11.91,0.00,20.58,26.10,29.09,6.30,32.75,1028.34,2040.99,1024.85,1452.98,1569.09,350.63,330.99,27.72,0000 0000 0000 0000 000000
2014-03-05 00:18:48,0.28,11.91,0.00,20.58,26.10,29.11,6.10,32.63,1028.34,2040.99,1024.46,1452.95,1569.03,349.52,330.14,27.73,0000 0000 0000 0000 000000
2014-03-05 00:19:48,0.41,11.91,0.00,20.57,26.09,29.11,6.08,32.79,1028.35,2040.99,1024.20,1452.61,1569.01,349.81,330.35,27.74,0000 0000 0000 0000 000000
2014-03-05 00:20:49,0.49,11.91,0.00,20.57,26.10,29.10,6.13,32.79,1028.35,2040.99,1024.08,1452.26,1568.98,350.17,330.47,27.74,0000 0000 0000 0000 000000
2014-03-05 00:21:49,0.37,11.92,0.00,20.58,26.09,29.10,6.23,32.83,1028.34,2040.99,1024.01,1452.11,1568.81,350.50,330.95,27.75,0000 0000 0000 0000 000000
2014-03-05 00:22:49,0.27,11.92,0.00,20.58,26.09,29.06,6.14,32.67,1028.35,2040.99,1023.96,1452.03,1568.49,349.28,330.02,27.75,0000 0000 0000 0000 000000
2014-03-05 00:23:49,0.29,11.92,0.00,20.58,26.08,29.09,6.23,32.75,1028.35,2040.99,1023.59,1452.01,1568.22,350.15,330.39,27.76,0000 0000 0000 0000 000000
2014-03-05 00:24:50,0.45,11.92,0.00,20.59,26.08,29.12,6.15,32.92,1028.35,2040.99,1023.25,1451.99,1568.09,349.45,329.88,27.77,0000 0000 0000 0000 000000
2014-03-05 00:25:50,0.37,11.92,0.00,20.58,26.08,29.09,6.15,32.71,1028.37,2040.99,1023.10,1451.93,1568.03,349.91,330.38,27.77,0000 0000 0000 0000 000000
2014-03-05 00:26:50,0.21,11.92,0.00,20.57,26.08,29.11,6.28,32.83,1028.36,2040.99,1023.03,1451.65,1568.01,351.09,331.11,27.78,0000 0000 0000 0000 000000
2014-03-05 00:27:50,0.31,11.93,0.00,20.57,26.08,29.12,6.29,32.71,1028.36,2040.99,1023.01,1451.26,1567.91,350.12,330.91,27.78,0000 0000 0000 0000 000000
2014-03-05 00:28:51,0.33,11.93,0.00,20.57,26.07,29.12,6.07,32.71,1028.35,2040.99,1022.98,1451.11,1567.59,350.05,330.06,27.79,0000 0000 0000 0000 000000
2014-03-05 00:29:51,0.31,11.93,0.00,20.57,26.07,29.11,6.07,32.79,1028.34,2040.99,1022.67,1451.03,1567.25,350.07,330.47,27.79,0000 0000 0000 0000 000000
2014-03-05 00:30:51,0.50,11.93,0.00,20.57,26.07,29.09,6.16,32.96,1028.34,2040.99,1022.27,1451.01,1567.09,349.91,330.32,27.80,0000 0000 0000 0000 000000
2014-03-05 00:31:51,0.42,11.94,0.00,20.57,26.07,29.13,6.13,32.79,1028.34,2040.98,1022.10,1451.00,1567.03,349.78,330.16,27.81,0000 0000 0000 0000 000000
2014-03-05 00:32:52,0.20,11.94,0.00,20.58,26.07,29.11,6.27,32.96,1028.35,2040.99,1022.03,1450.95,1567.01,350.24,330.88,27.81,0000 0000 0000 0000 000000
2014-03-05 00:33:52,0.10,11.94,0.00,20.58,26.07,29.06,5.99,32.71,1028.36,2040.99,1022.00,1450.78,1566.98,348.86,329.33,27.82,0000 0000 0000 0000 000000
2014-03-05 00:34:52,0.18,11.94,0.00,20.58,26.07,29.11,6.23,32.75,1028.35,2040.99,1021.96,1450.40,1566.85,350.59,330.96,27.82,0000 0000 0000 0000 000000
2014-03-05 00:35:52,0.42,11.94,0.00,20.57,26.07,29.10,6.19,32.67,1028.35,2040.99,1021.62,1450.17,1566.45,349.83,330.16,27.83,0000 0000 0000 0000 000000
2014-03-05 00:36:52,0.64,11.95,0.00,20.58,26.07,29.12,6.26,32.71,1028.35,2040.99,1021.26,1450.07,1566.18,350.28,330.84,27.84,0000 0000 0000 0000 000000
2014-03-05 00:37:53,0.51,11.95,0.00,20.58,26.07,29.10,6.19,32.67,1028.35,2040.99,1021.09,1450.02,1566.07,350.00,330.38,27.84,0000 0000 0000 0000 000000
2014-03-05 00:38:53,0.25,11.95,0.00,20.57,26.07,29.07,6.18,32.75,1028.34,2040.99,1021.03,1450.00,1566.02,349.98,330.39,27.85,0000 0000 0000 0000 000000
2014-03-05 00:39:53,0.10,11.95,0.00,20.58,26.07,29.08,6.34,33.08,1028.34,2040.99,1020.99,1449.99,1566.00,350.24,330.63,27.85,0000 0000 0000 0000 000000
2014-03-05 00:40:53,0.06,11.95,0.00,20.59,26.07,29.10,6.21,32.71,1028.34,2040.99,1020.86,1449.88,1565.97,349.46,329.83,27.86,0000 0000 0000 0000 000000
2014-03-05 00:41:54,0.25,11.95,0.00,20.58,26.07,29.12,6.38,33.00,1028.34,2040.99,1020.43,1449.54,1565.74,350.42,330.79,27.86,0000 0000 0000 0000 000000
2014-03-05 00:42:54,0.70,11.96,0.00,20.57,26.07,29.14,6.03,32.79,1028.34,2040.99,1020.17,1449.23,1565.37,349.69,330.12,27.87,0000 0000 0000 0000 000000
2014-03-05 00:43:54,0.65,11.96,0.00,20.57,26.07,29.15,6.13,32.79,1028.34,2040.99,1020.05,1449.08,1565.14,349.93,330.35,27.88,0000 0000 0000 0000 000000
2014-03-05 00:44:54,0.33,11.96,0.00,20.57,26.07,29.12,6.31,32.83,1028.34,2040.99,1020.02,1449.03,1565.05,350.58,330.96,27.88,0000 0000 0000 0000 000000
2014-03-05 00:45:55,0.13,11.96,0.00,20.57,26.07,29.07,6.19,32.75,1028.34,2040.99,1019.99,1449.01,1565.02,350.32,330.71,27.89,0000 0000 0000 0000 000000
2014-03-05 00:46:55,0.06,11.96,0.00,20.57,26.07,29.09,6.18,32.75,1028.34,2040.99,1019.81,1448.99,1565.00,350.62,331.01,27.89,0000 0000 0000 0000 000000
2014-03-05 00:47:55,0.21,11.96,0.00,20.57,26.07,29.10,6.15,32.79,1028.34,2040.99,1019.37,1448.99,1564.98,349.91,330.32,27.90,0000 0000 0000 0000 000000
2014-03-05 00:48:55,0.38,11.97,0.00,20.57,26.07,29.14,6.12,32.83,1028.34,2040.99,1019.14,1448.87,1564.80,350.14,330.55,27.91,0000 0000 0000 0000 000000
2014-03-05 00:49:55,0.46,11.97,0.00,20.57,26.07,29.09,6.08,32.88,1028.34,2040.99,1019.05,1448.44,1564.37,350.10,330.51,27.91,0000 0000 0000 0000 000000
2014-03-05 00:50:56,0.53,11.97,0.00,20.58,26.07,29.00,6.22,33.04,1028.34,2040.99,1019.01,1448.17,1564.15,350.17,330.80,27.92,0000 0000 0000 0000 000000
2014-03-05 00:51:56,0.36,11.97,0.00,20.58,26.07,29.03,6.21,32.92,1028.34,2040.99,1018.91,1448.06,1564.06,350.20,330.64,27.92,0000 0000 0000 0000 000000
2014-03-05 00:52:56,0.23,11.98,0.00,20.59,26.07,29.02,6.32,32.92,1028.34,2040.99,1018.53,1448.02,1564.01,351.21,331.60,27.93,0000 0000 0000 0000 000000
2014-03-05 00:53:57,0.43,11.98,0.00,20.58,26.07,29.02,6.22,33.13,1028.34,2040.99,1018.20,1448.00,1563.99,350.56,330.92,27.93,0000 0000 0000 0000 000000
2014-03-05 00:54:57,0.29,11.98,0.00,20.59,26.07,29.06,6.17,33.00,1028.34,2041.00,1018.07,1448.00,1563.93,350.04,330.46,27.94,0000 0000 0000 0000 000000
2014-03-05 00:55:57,0.18,11.98,0.00,20.59,26.06,29.04,6.26,33.25,1028.34,2041.00,1018.01,1447.90,1563.60,350.09,330.81,27.95,0000 0000 0000 0000 000000
2014-03-05 00:56:57,0.28,11.98,0.00,20.59,26.06,29.02,6.18,32.83,1028.34,2041.00,1017.98,1447.61,1563.27,350.29,330.77,27.95,0000 0000 0000 0000 000000
2014-03-05 00:57:58,0.43,11.99,0.00,20.60,26.06,29.05,6.07,33.38,1028.34,2041.00,1017.67,1447.28,1563.09,348.89,329.56,27.96,0000 0000 0000 0000 000000
2014-03-05 00:58:58,0.63,11.99,0.00,20.60,26.06,29.05,6.04,33.00,1028.34,2041.00,1017.30,1447.10,1563.03,349.97,330.35,27.96,0000 0000 0000 0000 000000
2014-03-05 00:59:58,0.46,11.99,0.00,20.59,26.06,29.08,6.15,33.29,1028.34,2041.01,1017.11,1447.04,1563.00,349.44,329.86,27.97,0000 0000 0000 0000 000000
2014-03-05 01:00:58,0.24,11.99,0.00,20.59,26.05,29.08,6.19,33.33,1028.32,2041.01,1017.04,1447.01,1562.98,350.12,330.50,27.98,0000 0000 0000 0000 000000
2014-03-05 01:01:58,0.10,11.99,0.00,20.59,26.05,29.09,6.20,32.83,1028.32,2041.00,1017.01,1446.99,1562.91,349.57,330.22,27.98,0000 0000 0000 0000 000000
2014-03-05 01:02:59,0.07,11.99,0.00,20.59,26.05,29.10,6.25,33.17,1028.30,2041.01,1016.98,1446.97,1562.63,350.44,331.17,27.99,0000 0000 0000 0000 000000
2014-03-05 01:03:59,0.19,12.00,0.00,20.59,26.05,29.09,6.19,33.25,1028.31,2041.00,1016.68,1446.81,1562.29,350.46,330.39,27.99,0000 0000 0000 0000 000000
2014-03-05 01:04:59,0.59,12.00,0.00,20.59,26.05,29.09,6.09,33.04,1028.28,2041.00,1016.30,1446.43,1562.14,350.34,330.69,28.00,0000 0000 0000 0000 000000
2014-03-05 01:05:59,0.70,12.00,0.00,20.59,26.05,29.11,6.08,32.96,1028.25,2041.00,1016.12,1446.17,1562.05,350.28,330.62,28.01,0000 0000 0000 0000 000000
2014-03-05 01:06:59,0.39,12.01,0.00,20.59,26.05,29.07,6.13,33.08,1028.22,2041.01,1016.04,1446.06,1562.02,349.95,330.30,28.01,0000 0000 0000 0000 000000
2014-03-05 01:08:00,0.17,12.01,0.00,20.59,26.05,29.05,6.22,33.17,1028.17,2041.01,1016.01,1446.02,1562.00,349.46,329.82,28.02,0000 0000 0000 0000 000000
2014-03-05 01:09:00,0.08,12.01,0.00,20.59,26.05,29.06,6.25,33.21,1028.13,2041.01,1015.90,1446.00,1561.81,350.67,330.95,28.02,0000 0000 0000 0000 000000
2014-03-05 01:10:00,0.21,12.01,0.00,20.59,26.05,29.06,6.19,33.17,1028.14,2041.00,1015.55,1446.00,1561.40,350.14,330.58,28.03,0000 0000 0000 0000 000000
2014-03-05 01:11:00,0.52,12.01,0.00,20.59,26.05,29.07,6.13,33.21,1028.08,2041.01,1015.23,1445.86,1561.17,350.10,330.14,28.03,0000 0000 0000 0000 000000
2014-03-05 01:12:01,0.52,12.01,0.00,20.59,26.05,29.07,6.35,33.13,1028.02,2041.00,1015.08,1445.45,1561.06,350.03,330.59,28.04,0000 0000 0000 0000 000000
2014-03-05 01:13:01,0.46,12.02,0.00,20.59,26.05,29.05,6.09,33.17,1027.99,2041.00,1015.03,1445.22,1561.02,350.47,330.92,28.05,0000 0000 0000 0000 000000
2014-03-05 01:14:01,0.23,12.02,0.00,20.59,26.05,29.07,6.21,33.00,1027.98,2041.03,1014.98,1445.09,1560.98,350.11,330.37,28.05,0000 0000 0000 0000 000000
2014-03-05 01:15:01,0.20,12.02,0.00,20.60,26.05,29.10,6.09,32.88,1027.93,2041.03,1014.62,1445.03,1560.93,349.70,329.95,28.06,0000 0000 0000 0000 000000
2014-03-05 01:16:02,0.45,12.02,0.00,20.62,26.05,29.12,6.33,33.17,1027.92,2041.01,1014.25,1445.01,1560.68,349.62,330.00,28.06,0000 0000 0000 0000 000000
2014-03-05 01:17:02,0.44,12.02,0.00,20.62,26.05,29.10,6.21,32.92,1027.98,2041.02,1014.09,1444.97,1560.29,349.72,330.25,28.07,0000 0000 0000 0000 000000
2014-03-05 01:18:02,0.37,12.03,0.00,20.61,26.05,29.06,6.26,33.04,1028.02,2041.02,1014.03,1444.77,1560.10,349.64,329.94,28.08,0000 0000 0000 0000 000000
2014-03-05 01:19:02,0.31,12.03,0.00,20.60,26.05,29.08,6.23,32.96,1027.94,2041.01,1014.00,1444.45,1560.03,349.44,329.73,28.08,0000 0000 0000 0000 000000
2014-03-05 01:20:02,0.28,12.03,0.00,20.60,26.05,29.08,6.08,33.04,1027.90,2041.01,1013.80,1444.19,1560.00,349.65,329.91,28.09,0000 0000 0000 0000 000000
2014-03-05 01:21:03,0.42,12.03,0.00,20.62,26.05,29.09,6.19,33.00,1027.93,2041.02,1013.38,1444.07,1559.97,349.84,330.07,28.09,0000 0000 0000 0000 000000
2014-03-05 01:22:03,0.46,12.04,0.00,20.61,26.05,29.10,5.96,33.13,1027.90,2041.01,1013.15,1444.02,1559.83,349.61,329.63,28.10,0000 0000 0000 0000 000000
2014-03-05 01:23:03,0.34,12.04,0.00,20.61,26.05,29.14,6.28,33.17,1027.92,2041.00,1013.05,1444.00,1559.38,349.84,330.09,28.10,0000 0000 0000 0000 000000
2014-03-05 01:24:03,0.29,12.04,0.00,20.61,26.05,29.11,6.18,32.96,1027.94,2041.00,1013.00,1443.96,1559.14,349.55,329.82,28.11,0000 0000 0000 0000 000000
2014-03-05 01:25:04,0.18,12.04,0.00,20.62,26.05,29.09,6.15,33.17,1027.94,2041.01,1012.90,1443.78,1559.05,349.20,329.48,28.12,0000 0000 0000 0000 000000
2014-03-05 01:26:04,0.31,12.04,0.00,20.61,26.05,29.04,6.21,33.00,1027.95,2041.03,1012.54,1443.41,1559.02,350.24,330.47,28.12,0000 0000 0000 0000 000000
2014-03-05 01:27:04,0.70,12.05,0.00,20.62,26.05,29.08,5.96,32.96,1027.93,2041.03,1012.21,1443.16,1558.98,349.09,329.37,28.13,0000 0000 0000 0000 000000
2014-03-05 01:28:05,0.48,12.05,0.00,20.62,26.05,29.11,6.24,33.13,1027.93,2041.02,1012.07,1443.06,1558.77,349.89,330.13,28.13,0000 0000 0000 0000 000000
2014-03-05 01:29:05,0.30,12.05,0.00,20.62,26.05,29.10,6.32,33.25,1027.92,2041.01,1012.02,1443.02,1558.33,350.80,330.97,28.14,0000 0000 0000 0000 000000
2014-03-05 01:30:05,0.24,12.05,0.00,20.62,26.05,29.09,6.13,33.13,1027.97,2041.02,1011.81,1442.94,1558.11,350.07,330.31,28.15,0000 0000 0000 0000 000000
2014-03-05 01:31:05,0.39,12.05,0.00,20.62,26.05,29.08,6.14,33.00,1027.94,2041.02,1011.34,1442.52,1558.02,349.36,329.63,28.15,0000 0000 0000 0000 000000
2014-03-05 01:32:05,0.79,12.06,0.00,20.62,26.05,29.05,6.09,33.42,1027.92,2041.02,1011.12,1442.19,1557.82,349.33,329.60,28.16,0000 0000 0000 0000 000000
2014-03-05 01:33:06,0.58,12.06,0.00,20.62,26.05,29.04,6.27,33.00,1027.89,2041.01,1010.93,1442.06,1557.34,350.21,330.87,28.16,0000 0000 0000 0000 000000
2014-03-05 01:34:06,0.46,12.07,0.00,20.62,26.05,29.03,6.15,33.08,1027.87,2041.00,1010.44,1441.92,1557.12,349.73,329.64,28.17,0000 0000 0000 0000 000000
2014-03-05 01:35:06,0.66,12.07,0.00,20.64,26.05,29.05,6.01,33.13,1027.90,2041.01,1010.16,1441.50,1557.03,349.00,329.56,28.18,0000 0000 0000 0000 000000
2014-03-05 01:36:06,0.67,12.07,0.00,20.63,26.05,29.07,6.30,33.38,1027.87,2041.01,1009.99,1441.20,1556.69,350.48,330.99,28.18,0000 0000 0000 0000 000000
2014-03-05 01:37:07,0.53,12.08,0.00,20.64,26.05,29.08,6.18,33.33,1027.88,2041.03,1009.49,1441.07,1556.27,350.40,330.28,28.19,0000 0000 0000 0000 000000
2014-03-05 01:38:07,0.81,12.08,0.00,20.64,26.05,29.07,6.20,33.00,1027.88,2041.02,1009.17,1440.96,1556.10,350.22,330.08,28.19,0000 0000 0000 0000 000000
2014-03-05 01:39:07,0.39,12.08,0.00,20.64,26.05,29.06,6.24,33.25,1027.87,2041.01,1009.04,1440.59,1556.01,350.24,330.67,28.20,0000 0000 0000 0000 000000
2014-03-05 01:40:07,0.47,12.09,0.00,20.64,26.05,29.07,6.23,33.29,1027.85,2041.01,1008.62,1440.23,1555.66,350.14,330.73,28.20,0000 0000 0000 0000 000000
2014-03-05 01:41:08,0.91,12.09,0.00,20.64,26.05,29.06,6.18,33.08,1027.85,2041.05,1008.23,1440.08,1555.26,350.50,331.05,28.21,0000 0000 0000 0000 000000
2014-03-05 01:42:08,0.66,12.10,0.00,20.64,26.05,29.06,6.08,33.13,1027.85,2041.02,1008.08,1440.02,1555.09,348.85,329.32,28.22,0000 0000 0000 0000 000000
2014-03-05 01:43:08,0.17,12.10,0.00,20.64,26.05,29.06,6.18,33.13,1027.85,2041.03,1008.03,1439.98,1555.03,349.79,329.98,28.22,0000 0000 0000 0000 000000
2014-03-05 01:44:08,0.12,12.10,0.00,20.64,26.05,29.06,6.17,32.96,1027.86,2041.02,1007.79,1439.62,1554.95,349.76,329.95,28.23,0000 0000 0000 0000 000000
2014-03-05 01:45:08,0.61,12.10,0.00,20.64,26.05,29.03,6.21,33.08,1027.86,2041.02,1007.34,1439.28,1554.68,349.70,329.89,28.23,0000 0000 0000 0000 000000
2014-03-05 01:46:09,0.81,12.11,0.00,20.64,26.05,29.08,6.31,33.21,1027.85,2041.03,1007.13,1439.12,1554.31,350.05,330.21,28.24,0000 0000 0000 0000 000000
2014-03-05 01:47:09,0.48,12.11,0.00,20.64,26.05,29.06,6.26,33.04,1027.86,2041.04,1007.05,1439.04,1554.13,350.34,330.53,28.25,0000 0000 0000 0000 000000
2014-03-05 01:48:09,0.17,12.11,0.00,20.64,26.05,29.05,6.04,32.83,1027.85,2041.06,1007.01,1439.01,1554.06,349.53,329.84,28.25,0000 0000 0000 0000 000000
2014-03-05 01:49:09,0.11,12.11,0.00,20.65,26.05,29.10,6.23,33.13,1027.86,2041.03,1006.94,1438.98,1554.02,350.45,330.60,28.26,0000 0000 0000 0000 000000
2014-03-05 01:50:10,0.06,12.11,0.00,20.65,26.05,29.08,5.98,32.96,1027.85,2041.03,1006.58,1438.94,1554.00,349.18,329.63,28.26,0000 0000 0000 0000 000000
2014-03-05 01:51:10,0.46,12.11,0.00,20.67,26.05,29.14,6.29,33.00,1027.86,2041.04,1006.23,1438.63,1553.92,348.53,328.76,28.27,0000 0000 0000 0000 000000
2014-03-05 01:52:10,0.64,12.12,0.00,20.67,26.05,29.12,6.15,32.88,1027.85,2041.04,1006.08,1438.28,1553.69,350.24,330.42,28.28,0000 0000 0000 0000 000000
2014-03-05 01:53:11,0.48,12.12,0.00,20.66,26.05,29.09,6.23,32.75,1027.85,2041.02,1006.03,1438.11,1553.37,350.08,330.22,28.28,0000 0000 0000 0000 000000
2014-03-05 01:54:11,0.27,12.12,0.00,20.67,26.05,29.09,6.23,32.92,1027.86,2041.02,1006.00,1438.04,1553.14,350.28,330.42,28.29,0000 0000 0000 0000 000000
2014-03-05 01:55:11,0.17,12.12,0.00,20.67,26.05,29.07,6.22,33.00,1027.85,2041.02,1005.95,1438.01,1553.05,348.64,329.29,28.29,0000 0000 0000 0000 000000
2014-03-05 01:56:11,0.11,12.12,0.00,20.67,26.05,29.10,6.19,33.17,1027.85,2041.01,1005.69,1437.99,1553.02,350.23,330.36,28.30,0000 0000 0000 0000 000000
2014-03-05 01:57:11,0.28,12.12,0.00,20.67,26.06,29.08,6.19,33.13,1027.86,2041.01,1005.35,1437.99,1553.00,350.36,330.35,28.30,0000 0000 0000 0000 000000
2014-03-05 01:58:12,0.35,12.13,0.00,20.67,26.06,29.05,6.12,33.13,1027.85,2041.00,1005.15,1437.95,1553.00,350.08,330.24,28.31,0000 0000 0000 0000 000000
2014-03-05 01:59:12,0.21,12.13,0.00,20.67,26.06,29.07,6.09,32.92,1027.85,2041.01,1005.05,1437.74,1552.94,349.99,330.14,28.32,0000 0000 0000 0000 000000
2014-03-05 02:00:12,0.27,12.13,0.00,20.67,26.06,29.06,6.24,32.92,1027.85,2041.00,1005.02,1437.45,1552.67,350.11,329.78,28.32,0000 0000 0000 0000 000000
2014-03-05 02:01:13,0.37,12.13,0.00,20.67,26.06,29.09,6.10,32.96,1027.85,2041.00,1004.97,1437.20,1552.31,349.75,329.42,28.33,0000 0000 0000 0000 000000
2014-03-05 02:02:13,0.40,12.13,0.00,20.67,26.06,29.07,6.17,33.04,1027.85,2041.00,1004.92,1437.08,1552.13,349.93,329.83,28.33,0000 0000 0000 0000 000000
2014-03-05 02:03:13,0.20,12.14,0.00,20.68,26.07,29.04,6.03,32.92,1027.85,2041.00,1004.62,1437.02,1552.05,349.66,329.81,28.34,0000 0000 0000 0000 000000
2014-03-05 02:04:13,0.38,12.14,0.00,20.69,26.06,29.09,6.11,32.92,1027.86,2041.01,1004.26,1437.00,1552.02,349.93,330.06,28.35,0000 0000 0000 0000 000000
2014-03-05 02:05:14,0.40,12.14,0.00,20.69,26.07,29.11,6.15,33.00,1027.85,2041.01,1004.09,1436.99,1552.00,350.05,329.86,28.35,0000 0000 0000 0000 000000
2014-03-05 02:06:14,0.19,12.14,0.00,20.68,26.07,29.13,6.18,33.25,1027.85,2041.00,1004.03,1436.94,1551.93,349.80,329.94,28.36,0000 0000 0000 0000 000000
2014-03-05 02:07:14,0.10,12.14,0.00,20.69,26.07,29.13,6.07,33.08,1027.85,2041.01,1004.01,1436.75,1551.71,348.98,329.16,28.36,0000 0000 0000 0000 000000
2014-03-05 02:08:14,0.24,12.14,0.00,20.69,26.07,29.13,6.16,33.13,1027.86,2041.00,1003.98,1436.38,1551.33,350.05,330.17,28.37,0000 0000 0000 0000 000000
2014-03-05 02:09:15,0.49,12.15,0.00,20.69,26.07,29.07,6.30,33.13,1027.85,2041.01,1003.71,1436.16,1551.13,350.56,330.64,28.37,0000 0000 0000 0000 000000
2014-03-05 02:10:15,0.57,12.15,0.00,20.69,26.07,29.08,6.20,33.29,1027.85,2041.00,1003.32,1436.06,1551.05,350.40,330.49,28.38,0000 0000 0000 0000 000000
2014-03-05 02:11:15,0.48,12.15,0.00,20.69,26.07,29.11,6.29,33.17,1027.85,2041.00,1003.11,1436.02,1551.01,350.68,330.75,28.39,0000 0000 0000 0000 000000
2014-03-05 02:12:16,0.23,12.15,0.00,20.69,26.07,29.11,6.06,33.13,1027.85,2041.00,1003.04,1436.01,1551.00,349.29,329.45,28.39,0000 0000 0000 0000 000000
2014-03-05 02:13:16,0.09,12.15,0.00,20.70,26.07,29.09,6.12,33.08,1027.85,2041.00,1003.01,1436.00,1550.98,349.52,329.66,28.40,0000 0000 0000 0000 000000
2014-03-05 02:14:16,0.03,12.15,0.00,20.70,26.07,29.12,6.18,33.13,1027.86,2041.00,1002.99,1435.98,1550.84,350.34,330.44,28.40,0000 0000 0000 0000 000000
2014-03-05 02:15:16,0.11,12.16,0.00,20.71,26.07,29.05,6.22,33.17,1027.85,2041.00,1002.89,1435.91,1550.56,349.85,329.53,28.41,0000 0000 0000 0000 000000
2014-03-05 02:16:16,0.32,12.16,0.00,20.71,26.07,29.09,6.14,32.96,1027.85,2041.01,1002.45,1435.60,1550.26,349.95,330.34,28.42,0000 0000 0000 0000 000000
2014-03-05 02:17:17,0.81,12.16,0.00,20.72,26.07,29.07,6.20,33.25,1027.85,2041.00,1002.17,1435.31,1550.10,350.63,330.68,28.42,0000 0000 0000 0000 000000
2014-03-05 02:18:17,0.54,12.16,0.00,20.72,26.07,29.08,6.09,33.25,1027.86,2041.01,1002.06,1435.12,1550.03,350.12,330.21,28.43,0000 0000 0000 0000 000000
2014-03-05 02:19:17,0.26,12.17,0.00,20.72,26.07,29.09,6.38,33.38,1027.85,2041.00,1002.02,1435.05,1550.01,350.57,330.67,28.43,0000 0000 0000 0000 000000
2014-03-05 02:20:18,0.07,12.17,0.00,20.72,26.07,29.09,6.30,33.17,1027.85,2041.00,1002.00,1435.01,1549.98,350.34,329.98,28.44,0000 0000 0000 0000 000000
2014-03-05 02:21:18,0.04,12.17,0.00,20.72,26.07,29.11,6.05,33.17,1027.85,2041.00,1001.97,1435.00,1549.96,349.45,329.64,28.44,0000 0000 0000 0000 000000
2014-03-05 02:22:18,0.09,12.17,0.00,20.73,26.07,29.10,6.10,33.33,1027.85,2041.00,1001.64,1434.98,1549.67,349.62,329.95,28.45,0000 0000 0000 0000 000000
2014-03-05 02:23:18,0.49,12.17,0.00,20.73,26.07,29.07,6.13,33.00,1027.85,2041.00,1001.25,1434.87,1549.33,349.63,329.72,28.46,0000 0000 0000 0000 000000
2014-03-05 02:24:19,0.64,12.17,0.00,20.72,26.07,29.10,6.08,32.92,1027.85,2041.00,1001.09,1434.50,1549.12,350.46,330.51,28.46,0000 0000 0000 0000 000000
2014-03-05 02:25:19,0.49,12.18,0.00,20.74,26.07,29.06,6.19,33.00,1027.85,2041.00,1001.01,1434.22,1549.04,350.09,330.38,28.47,0000 0000 0000 0000 000000
2014-03-05 02:26:19,0.34,12.18,0.00,20.72,26.07,29.09,6.32,33.33,1027.85,2041.01,1000.73,1434.09,1549.01,349.60,330.09,28.47,0000 0000 0000 0000 000000
2014-03-05 02:27:19,0.40,12.18,0.00,20.74,26.07,29.11,6.23,33.17,1027.85,2041.01,1000.33,1434.03,1548.99,350.49,330.82,28.48,0000 0000 0000 0000 000000
2014-03-05 02:28:19,0.44,12.18,0.00,20.74,26.07,29.11,6.16,33.29,1027.85,2041.00,1000.12,1434.01,1548.94,349.60,329.68,28.49,0000 0000 0000 0000 000000
2014-03-05 02:29:20,0.25,12.19,0.00,20.74,26.07,29.07,6.07,33.13,1027.85,2041.01,1000.04,1433.98,1548.64,349.53,329.31,28.49,0000 0000 0000 0000 000000
2014-03-05 02:30:20,0.21,12.19,0.00,20.74,26.07,29.11,6.24,33.25,1027.85,2041.00,1000.00,1433.95,1548.26,349.60,329.35,28.50,0000 0000 0000 0000 000000
2014-03-05 02:31:20,0.24,12.19,0.00,20.75,26.07,29.10,6.13,33.04,1027.85,2041.00,999.97,1433.70,1548.09,350.18,330.32,28.50,0000 0000 0000 0000 000000
2014-03-05 02:32:21,0.31,12.19,0.00,20.76,26.08,29.15,6.38,33.42,1027.85,2041.00,999.86,1433.40,1548.03,351.27,330.94,28.51,0000 0000 0000 0000 000000
2014-03-05 02:33:21,0.34,12.19,0.00,20.75,26.08,29.15,6.04,32.92,1027.85,2041.02,999.59,1433.20,1548.01,350.54,330.78,28.51,0000 0000 0000 0000 000000
2014-03-05 02:34:21,0.45,12.19,0.00,20.75,26.09,29.14,6.12,32.92,1027.85,2041.01,999.26,1433.08,1548.00,350.75,330.43,28.52,0000 0000 0000 0000 000000
2014-03-05 02:35:22,0.42,12.20,0.00,20.75,26.09,29.13,6.17,32.96,1027.85,2041.00,999.10,1433.03,1548.00,350.54,330.57,28.53,0000 0000 0000 0000 000000